World > North America > United States > Indiana

Greensburg, Indiana Regional Weather

Lat: 39.34N, Lon: 85.48W
Wx Zone: INZ065
Warning NWS WEATHER ALERT - (More Info. Click Here) Warning
Feedback

Greensburg, IN Regional Weather

Expires:201910160600;;777647
ASUS43 KIND 160500
RWRIN 

WEATHER ROUNDUP FOR INDIANA
NATIONAL WEATHER SERVICE INDIANAPOLIS IN
100 AM EDT WED OCT 16 2019

NOTE: "FAIR" INDICATES FEW OR NO CLOUDS BELOW 12,000 FEET WITH NO
SIGNIFICANT WEATHER AND/OR OBSTRUCTIONS TO VISIBILITY.

* - STATION DOES NOT REPORT WEATHER SUCH AS PRECIPITATION OR FOG.

+ - STATION NOT QUALITY CONTROLLED BY THE NATIONAL WEATHER SERVICE.
    USE DATA WITH CAUTION...ESPECIALLY DEWPOINT AND RELATIVE
    HUMIDITY OBSERVATIONS.


INZ030>032-037>040-046>048-054>057-064-065-160600-
CENTRAL INDIANA
  
CITY           SKY/WX    TMP DP  RH WIND       PRES   REMARKS
ANDERSON +     CLOUDY    60  58  91 NW26G36   29.77S                  
FRANKFORT +      N/A     55  44  66 NW13      29.83S                  
INDIANAPOLIS   CLOUDY    54  46  74 NW22G28   29.82R                  
-EAGLE CREEK   CLOUDY    54  44  69 NW15G31   29.81R                  
KOKOMO +       CLOUDY    53  45  74 W20G25    29.79R                  
MT COMFORT *+  MOCLDY    54  50  87 NW16G25   29.80R                  
SHELBYVILLE    CLOUDY    62  59  90 W7        29.77S                  

$$


SKY/WX - Weather  TMP - Temperature  DP - Dew Point  RH - Relative Humidity
WIND - Wind Direction/Speed PRES - Barometric Pressure VSB - Visibility
WCI - Wind Chill Index E13G22 Wind - East Wind 13 mph/Gusts of 22 mph